Regional Weather Roundup
Issued by NWS

Home | Current Version | Previous Version | Graphics & Text | Print | Product List | Glossary On
Versions: 1 2 3 4 5 6 7 8 9 10 11 12 13 14 15 16 17 18 19 20 21 22 23 24 25 26 27 28 29 30 31 32 33 34 35 36 37 38 39 40 41 42 43 44 45 46 47 48 49 50
000
ASUS45 KPSR 272110
RWRAZ

ARIZONA HOURLY REGIONAL WEATHER ROUNDUP
NATIONAL WEATHER SERVICE PHOENIX AZ
200 PM MST THU AUG 27 2015

NOTE: FAIR INDICATES FEW OR NO CLOUDS BELOW 12,000 FEET WITH NO
SIGNIFICANT WEATHER AND/OR OBSTRUCTIONS TO VISIBILITY.

AZZ001>003-036-272200-
NORTHWEST ARIZONA

CITY           SKY/WX    TMP DP  RH WIND       PRES   REMARKS
BULLHEAD CITY  FAIR     106  54  17 N5        29.89F HX 104
KINGMAN        FAIR      91  55  29 NW9G21    30.12F
$$

AZZ004>008-015-016-018-272200-
NORTH CENTRAL ARIZONA

CITY           SKY/WX    TMP DP  RH WIND       PRES   REMARKS
GRAND CANYON   FAIR      78  44  29 W9G22     30.36F
WILLIAMS       FAIR      77  48  36 N9        30.41F
PRESCOTT       FAIR      74  66  76 W10       30.25F THUNDER
FLAGSTAFF      CLOUDY    64  55  72 E13       30.40R
PAYSON         FAIR      68  61  77 VRB3G13   30.29R
PAGE           FAIR      86  53  32 VRB3      30.18F
$$

AZZ009>014-017-272200-
NORTHEAST ARIZONA

CITY           SKY/WX    TMP DP  RH WIND       PRES   REMARKS
WINSLOW        FAIR      82  57  42 SE7       30.24F
SAINT JOHNS    FAIR      75  58  55 W14       30.28F
WINDOW ROCK    FAIR      81  47  30 N8        30.33F
SHOW LOW       FAIR      63  55  77 SW7       30.37F
$$

AZZ023-272200-
GREATER PHOENIX AREA

CITY           SKY/WX    TMP DP  RH WIND       PRES   REMARKS
PHOENIX        FAIR     106  57  20 NW13G18   29.88F HX 105
BUCKEYE        FAIR     104  57  21 CALM      29.88F HX 103
GLENDALE       MOSUNNY  108  57  19 W9        29.90F HX 107
LUKE AFB       FAIR     105  60  23 VRB6      29.87F HX 106
DEER VALLEY    FAIR     104  58  21 VRB7      29.91F HX 104
SCOTTSDALE     FAIR     104  57  21 E3        29.93F HX 103
MESA-FALCON    MOSUNNY  106  59  21 S7        29.91F HX 106
MESA-GATEWAY   MOSUNNY  102  61  25 W7        29.94F HX 103
CHANDLER       PTSUNNY  102  61  25 SW8       29.91F HX 103
$$

AZZ027-028-272200-
SOUTHWEST MARICOPA COUNTY AND PINAL COUNTY

CITY           SKY/WX    TMP DP  RH WIND       PRES   REMARKS
CASA GRANDE    FAIR     100  61  27 CALM      29.93F HX 101
GILA BEND      MOSUNNY  105  58  21 VRB6      29.87F HX 104
$$

AZZ503-504-507>509-272200-
SOUTHEAST ARIZONA

CITY           SKY/WX    TMP DP  RH WIND       PRES   REMARKS
TUCSON         FAIR      98  55  23 NW7       30.03F
DAVIS-MONTHAN  FAIR      96  56  26 SW7       30.01F
RYAN FIELD     SUNNY     99  55  23 S7        30.02F
NOGALES        FAIR      90  56  31 NW3       30.13F
SIERRA VISTA   FAIR      83  58  41 N6        30.21F
DOUGLAS        PTSUNNY   80  57  45 NE30G43   30.15F THUNDER HAZE
SAFFORD        FAIR      89  61  38 NE5       30.07F
$$

AZZ020-021-025-026-031-272200-
SOUTHWEST ARIZONA

CITY           SKY/WX    TMP DP  RH WIND       PRES   REMARKS
YUMA           FAIR     107  63  23 SW6       29.84F HX 110
$$

CAZ031-033-041-043-047-048-061-272200-
SOUTHERN CALIFORNIA

CITY           SKY/WX    TMP DP  RH WIND       PRES   REMARKS
DOWNTOWN L.A.  FAIR      91  61  36 CALM      29.93F
L.A. AIRPORT   FAIR      82  65  56 W14       29.95F
SAN DIEGO      FAIR      84  64  50 VRB7      29.96F
BURBANK        FAIR      96  56  26 S10       29.95F
ONTARIO        FAIR     101  54  20 W13       29.94F
RIVERSIDE      FAIR     100  51  19 W10G20    29.93F
PALM SPRINGS   FAIR     108  56  18 E8        29.87F HX 107
EL CENTRO NAS  FAIR     107  57  19 S5        29.83F HX 107
IMPERIAL       FAIR     109  57  18 E8        29.81F HX 109
BLYTHE         FAIR     109  60  20 VRB3      29.84F HX 110
NEEDLES        FAIR     109  55  17 MISG      29.88F HX 108
$$

NVZ020-UTZ003-272200-
SOUTHERN NEVADA-UTAH

CITY           SKY/WX    TMP DP  RH WIND       PRES   REMARKS
LAS VEGAS      PTSUNNY   97  54  23 CALM      29.99F
SALT LAKE CITY FAIR      86  50  28 W10       30.20F
$$

NMZ009-TXZ055-272200-
NEW MEXICO-WEST TEXAS

CITY           SKY/WX    TMP DP  RH WIND       PRES   REMARKS
ALBUQUERQUE    PTSUNNY   85  52  32 W9G18     30.22F
EL PASO        PTSUNNY   94  52  24 VRB3      30.10F
$$


........................KEY........................
SKY/WX - SKY CONDITION/WEATHER
TMP    - TEMPERATURE IN FAHRENHEIT
DP     - DEW POINT IN FAHRENHEIT
RH     - RELATIVE HUMIDITY IN PERCENT
WIND   - DIRECTION AND SPEED IN MILES PER HOUR (MPH)
VRB    - VARIABLE WIND DIRECTION
PRES   - MEAN SEA LEVEL PRESSURE IN INCHES OF MERCURY
         F - FALLING PRESSURE   R - RISING PRESSURE
         S - STEADY PRESSURE
VSB    - VISIBILITY IN MILES
HX     - HEAT INDEX IN FAHRENHEIT
WCI    - WIND CHILL INDEX IN FAHRENHEIT
TC     - TEMPERATURE IN CELSIUS WHICH IS ALSO KNOWN AS
         TEMPERATURE IN CENTIGRADE
AFB    - AIR FORCE BASE
         LUKE AFB IS LUKE AIR FORCE BASE
         DAVIS-MONTHAN IS DAVIS-MONTHAN AIR FORCE BASE
NAS    - NAVAL AIR STATION
         EL CENTRO NAS IS EL CENTRO NAVAL AIR STATION
N/A    - NOT AVAILABLE




USA.gov is the U.S. government's official web portal to all federal, state and local government web resources and services.